Tracking 28333 objects as of 10-Dec-2023
HD Live streaming from Space Station
objects crossing your sky now

SL-8 DEB

Track SL-8 DEB now!
10-day predictions


NORAD ID: 2647
Int'l Code: 1965-073L
Perigee: 1,355.8 km
Apogee: 1,642.4 km
Inclination: 56.1 °
Period: 115.8 minutes
Semi major axis: 7870 km
RCS: 0.0558 m2 (small)
Launch date: September 18, 1965
Source: Commonwealth of Independent States (former USSR) (CIS)
Launch site: TYURATAM MISSILE AND SPACE COMPLEX (TTMTR)

Note: This is SATELLITE DEBRIS
Your satellite tracking list
Your tracking list is empty




NASA's NSSDC Master Catalog

Two Line Element Set (TLE):
1 02647U 65073L   23343.79785747  .00000017  00000-0  73814-3 0  9993
2 02647  56.0658 123.9613 0182095 280.9802 226.2054 12.43467436  2137
Source of the keplerian elements: AFSPC